Orbital Elements at Epoch 2459200.5 (2020-Dec-17.0) TDB
Reference: JPL 19 (heliocentric ecliptic J2000)
Element | Value | Uncertainty (1-sigma) | Units |
e | .158221970322374 | 3.9977e-08 | |
a | 2.337496640633612 | 1.5707e-08 | au |
q | 1.967653316530632 | 9.4147e-08 | au |
i | 7.246793362452157 | 4.7616e-06 | deg |
node | 94.57944021260396 | 4.3125e-05 | deg |
peri | 222.1192375334167 | 4.6949e-05 | deg |
M | 123.113036342112 | 2.255e-05 | deg |
tp | 2458754.097660832682 (2019-Sep-27.59766083) | 7.9363e-05 | TDB |
period | 1305.343827713423 3.57 | 1.3157e-05 3.602e-08 | d yr |
n | .2757894068650201 | 2.7798e-09 | deg/d |
Q | 2.707339964736593 | 1.8193e-08 | au |
|
| | Orbit Determination Parameters
Additional Information
|